User: anonymous   Login
Location: Hurecourt
(47.9030°N, 6.0653°E)
Time: 12:29:24
(UTC+00:00)
Language:

Cosmos 468 Rocket - Orbit

View from above orbital plane
View from above orbital plane
View from above satellite
View from above satellite

Ground track
Ground track

The orbit data is extracted from the following two-line orbital elements,

1  5707U 71114B   20272.07782145 -.00000001  00000-0  80707-5 0  9999
2  5707  74.0290  34.1625 0024446 170.0771 190.0871 14.38908777555226
Epoch (UTC): 28 September 2020 01:52:03
Eccentricity: 0.0024446
inclination: 74.0290°
perigee height: 744 km
apogee height: 779 km
right ascension of ascending node: 34.1625°
argument of perigee: 170.0771°
revolutions per day: 14.38908777
mean anomaly at epoch: 190.0871°
orbit number at epoch: 55522

The dashed part of the orbit path shows where the satellite is in the earth's shadow,  

DLR